Year,Month,Day,Hour,Minute,Value (Times are PST for temperature in C)
2018,07,02,00,00,12.80
2018,07,02,00,01,12.80
2018,07,02,00,02,12.80
2018,07,02,00,03,12.80
2018,07,02,00,04,12.70
2018,07,02,00,05,12.70
2018,07,02,00,06,12.70
2018,07,02,00,07,12.70
2018,07,02,00,08,12.60
2018,07,02,00,09,12.60
2018,07,02,00,10,12.60
2018,07,02,00,11,12.60
2018,07,02,00,12,12.60
2018,07,02,00,13,12.60
2018,07,02,00,14,12.60
2018,07,02,00,15,12.60
2018,07,02,00,16,12.60
2018,07,02,00,17,12.60
2018,07,02,00,18,12.50
2018,07,02,00,19,12.50
2018,07,02,00,20,12.50
2018,07,02,00,21,12.50
2018,07,02,00,22,12.40
2018,07,02,00,23,12.40
2018,07,02,00,24,12.40
2018,07,02,00,25,12.40
2018,07,02,00,26,12.40
2018,07,02,00,27,12.40
2018,07,02,00,28,12.30
2018,07,02,00,29,12.30
2018,07,02,00,30,12.30
2018,07,02,00,31,12.30
2018,07,02,00,32,12.30
2018,07,02,00,33,12.20
2018,07,02,00,34,12.20
2018,07,02,00,35,12.20
2018,07,02,00,36,12.20
2018,07,02,00,37,12.20
2018,07,02,00,38,12.20
2018,07,02,00,39,12.10
2018,07,02,00,40,12.10
2018,07,02,00,41,12.10
2018,07,02,00,42,12.10
2018,07,02,00,43,12.10
2018,07,02,00,44,12.00
2018,07,02,00,45,12.00
2018,07,02,00,46,11.90
2018,07,02,00,47,11.90
2018,07,02,00,48,11.90
2018,07,02,00,49,11.80
2018,07,02,00,50,11.80
2018,07,02,00,51,11.80
2018,07,02,00,52,11.80
2018,07,02,00,53,11.70
2018,07,02,00,54,11.70
2018,07,02,00,55,11.70
2018,07,02,00,56,11.80
2018,07,02,00,57,11.80
2018,07,02,00,58,11.80
2018,07,02,00,59,11.80
2018,07,02,01,00,11.70
2018,07,02,01,01,11.70
2018,07,02,01,02,11.70
2018,07,02,01,03,11.70
2018,07,02,01,04,11.70
2018,07,02,01,05,11.70
2018,07,02,01,06,11.70
2018,07,02,01,07,11.70
2018,07,02,01,08,11.70
2018,07,02,01,09,11.70
2018,07,02,01,10,11.70
2018,07,02,01,11,11.70
2018,07,02,01,12,11.60
2018,07,02,01,13,11.60
2018,07,02,01,14,11.60
2018,07,02,01,15,11.60
2018,07,02,01,16,11.60
2018,07,02,01,17,11.60
2018,07,02,01,18,11.60
2018,07,02,01,19,11.60
2018,07,02,01,20,11.60
2018,07,02,01,21,11.60
2018,07,02,01,22,11.60
2018,07,02,01,23,11.60
2018,07,02,01,24,11.60
2018,07,02,01,25,11.60
2018,07,02,01,26,11.60
2018,07,02,01,27,11.60
2018,07,02,01,28,11.50
2018,07,02,01,29,11.50
2018,07,02,01,30,11.50
2018,07,02,01,31,11.50
2018,07,02,01,32,11.40
2018,07,02,01,33,11.40
2018,07,02,01,34,11.40
2018,07,02,01,35,11.40
2018,07,02,01,36,11.40
2018,07,02,01,37,11.30
2018,07,02,01,38,11.30
2018,07,02,01,39,11.30
2018,07,02,01,40,11.30
2018,07,02,01,41,11.30
2018,07,02,01,42,11.20
2018,07,02,01,43,11.20
2018,07,02,01,44,11.20
2018,07,02,01,45,11.20
2018,07,02,01,46,11.10
2018,07,02,01,47,11.10
2018,07,02,01,48,11.10
2018,07,02,01,49,11.10
2018,07,02,01,50,11.10
2018,07,02,01,51,11.00
2018,07,02,01,52,11.00
2018,07,02,01,53,11.00
2018,07,02,01,54,11.00
2018,07,02,01,55,10.90
2018,07,02,01,56,10.90
2018,07,02,01,57,10.90
2018,07,02,01,58,10.90
2018,07,02,01,59,10.90
2018,07,02,02,00,10.80
2018,07,02,02,01,10.80
2018,07,02,02,02,10.80
2018,07,02,02,03,10.80
2018,07,02,02,04,10.80
2018,07,02,02,05,10.80
2018,07,02,02,06,10.80
2018,07,02,02,07,10.80
2018,07,02,02,08,10.80
2018,07,02,02,09,10.80
2018,07,02,02,10,10.80
2018,07,02,02,11,10.80
2018,07,02,02,12,10.80
2018,07,02,02,13,10.80
2018,07,02,02,14,10.80
2018,07,02,02,15,10.80
2018,07,02,02,16,10.80
2018,07,02,02,17,10.80
2018,07,02,02,18,10.80
2018,07,02,02,19,10.80
2018,07,02,02,20,10.80
2018,07,02,02,21,10.80
2018,07,02,02,22,10.70
2018,07,02,02,23,10.70
2018,07,02,02,24,10.70
2018,07,02,02,25,10.70
2018,07,02,02,26,10.70
2018,07,02,02,27,10.70
2018,07,02,02,28,10.70
2018,07,02,02,29,10.60
2018,07,02,02,30,10.60
2018,07,02,02,31,10.60
2018,07,02,02,32,10.60
2018,07,02,02,33,10.50
2018,07,02,02,34,10.50
2018,07,02,02,35,10.40
2018,07,02,02,36,10.30
2018,07,02,02,37,10.30
2018,07,02,02,38,10.30
2018,07,02,02,39,10.20
2018,07,02,02,40,10.20
2018,07,02,02,41,10.10
2018,07,02,02,42,10.10
2018,07,02,02,43,10.10
2018,07,02,02,44,10.00
2018,07,02,02,45,10.00
2018,07,02,02,46,9.90
2018,07,02,02,47,9.90
2018,07,02,02,48,9.80
2018,07,02,02,49,9.80
2018,07,02,02,50,9.80
2018,07,02,02,51,9.80
2018,07,02,02,52,9.70
2018,07,02,02,53,9.70
2018,07,02,02,54,9.70
2018,07,02,02,55,9.60
2018,07,02,02,56,9.60
2018,07,02,02,57,9.60
2018,07,02,02,58,9.60
2018,07,02,02,59,9.50
2018,07,02,03,00,9.50
2018,07,02,03,01,9.50
2018,07,02,03,02,9.40
2018,07,02,03,03,9.40
2018,07,02,03,04,9.40
2018,07,02,03,05,9.40
2018,07,02,03,06,9.40
2018,07,02,03,07,9.30
2018,07,02,03,08,9.30
2018,07,02,03,09,9.30
2018,07,02,03,10,9.30
2018,07,02,03,11,9.30
2018,07,02,03,12,9.30
2018,07,02,03,13,9.30
2018,07,02,03,14,9.30
2018,07,02,03,15,9.30
2018,07,02,03,16,9.30
2018,07,02,03,17,9.30
2018,07,02,03,18,9.20
2018,07,02,03,19,9.20
2018,07,02,03,20,9.20
2018,07,02,03,21,9.20
2018,07,02,03,22,9.20
2018,07,02,03,23,9.20
2018,07,02,03,24,9.20
2018,07,02,03,25,9.20
2018,07,02,03,26,9.20
2018,07,02,03,27,9.20
2018,07,02,03,28,9.20
2018,07,02,03,29,9.20
2018,07,02,03,30,9.20
2018,07,02,03,31,9.20
2018,07,02,03,32,9.20
2018,07,02,03,33,9.20
2018,07,02,03,34,9.20
2018,07,02,03,35,9.20
2018,07,02,03,36,9.20
2018,07,02,03,37,9.20
2018,07,02,03,38,9.20
2018,07,02,03,39,9.20
2018,07,02,03,40,9.20
2018,07,02,03,41,9.20
2018,07,02,03,42,9.20
2018,07,02,03,43,9.10
2018,07,02,03,44,9.10
2018,07,02,03,45,9.10
2018,07,02,03,46,9.10
2018,07,02,03,47,9.10
2018,07,02,03,48,9.10
2018,07,02,03,49,9.10
2018,07,02,03,50,9.10
2018,07,02,03,51,9.00
2018,07,02,03,52,9.00
2018,07,02,03,53,9.00
2018,07,02,03,54,9.10
2018,07,02,03,55,9.10
2018,07,02,03,56,9.10
2018,07,02,03,57,9.10
2018,07,02,03,58,9.10
2018,07,02,03,59,9.10
2018,07,02,04,00,9.10
2018,07,02,04,01,9.10
2018,07,02,04,02,9.10
2018,07,02,04,03,9.10
2018,07,02,04,04,9.10
2018,07,02,04,05,9.10
2018,07,02,04,06,9.10
2018,07,02,04,07,9.10
2018,07,02,04,08,9.10
2018,07,02,04,09,9.10
2018,07,02,04,10,9.10
2018,07,02,04,11,9.10
2018,07,02,04,12,9.10
2018,07,02,04,13,9.10
2018,07,02,04,14,9.10
2018,07,02,04,15,9.10
2018,07,02,04,16,9.10
2018,07,02,04,17,9.10
2018,07,02,04,18,9.10
2018,07,02,04,19,9.10
2018,07,02,04,20,9.10
2018,07,02,04,21,9.10
2018,07,02,04,22,9.10
2018,07,02,04,23,9.10
2018,07,02,04,24,9.10
2018,07,02,04,25,9.10
2018,07,02,04,26,9.20
2018,07,02,04,27,9.20
2018,07,02,04,28,9.20
2018,07,02,04,29,9.20
2018,07,02,04,30,9.20
2018,07,02,04,31,9.20
2018,07,02,04,32,9.30
2018,07,02,04,33,9.30
2018,07,02,04,34,9.30
2018,07,02,04,35,9.30
2018,07,02,04,36,9.30
2018,07,02,04,37,9.30
2018,07,02,04,38,9.30
2018,07,02,04,39,9.30
2018,07,02,04,40,9.30
2018,07,02,04,41,9.30
2018,07,02,04,42,9.30
2018,07,02,04,43,9.30
2018,07,02,04,44,9.30
2018,07,02,04,45,9.30
2018,07,02,04,46,9.30
2018,07,02,04,47,9.30
2018,07,02,04,48,9.20
2018,07,02,04,49,9.20
2018,07,02,04,50,9.20
2018,07,02,04,51,9.20
2018,07,02,04,52,9.20
2018,07,02,04,53,9.20
2018,07,02,04,54,9.20
2018,07,02,04,55,9.20
2018,07,02,04,56,9.20
2018,07,02,04,57,9.20
2018,07,02,04,58,9.20
2018,07,02,04,59,9.20
2018,07,02,05,00,9.20
2018,07,02,05,01,9.20
2018,07,02,05,02,9.20
2018,07,02,05,03,9.10
2018,07,02,05,04,9.10
2018,07,02,05,05,9.10
2018,07,02,05,06,9.10
2018,07,02,05,07,9.10
2018,07,02,05,08,9.00
2018,07,02,05,09,9.00
2018,07,02,05,10,8.90
2018,07,02,05,11,8.90
2018,07,02,05,12,8.90
2018,07,02,05,13,8.80
2018,07,02,05,14,8.80
2018,07,02,05,15,8.80
2018,07,02,05,16,8.70
2018,07,02,05,17,8.70
2018,07,02,05,18,8.70
2018,07,02,05,19,8.60
2018,07,02,05,20,8.50
2018,07,02,05,21,8.50
2018,07,02,05,22,8.40
2018,07,02,05,23,8.40
2018,07,02,05,24,8.40
2018,07,02,05,25,8.30
2018,07,02,05,26,8.30
2018,07,02,05,27,8.30
2018,07,02,05,28,8.30
2018,07,02,05,29,8.20
2018,07,02,05,30,8.20
2018,07,02,05,31,8.20
2018,07,02,05,32,8.10
2018,07,02,05,33,8.10
2018,07,02,05,34,8.00
2018,07,02,05,35,8.00
2018,07,02,05,36,8.00
2018,07,02,05,37,7.90
2018,07,02,05,38,7.90
2018,07,02,05,39,7.90
2018,07,02,05,40,7.90
2018,07,02,05,41,7.90
2018,07,02,05,42,8.00
2018,07,02,05,43,8.00
2018,07,02,05,44,8.10
2018,07,02,05,45,8.10
2018,07,02,05,46,8.10
2018,07,02,05,47,8.10
2018,07,02,05,48,8.20
2018,07,02,05,49,8.20
2018,07,02,05,50,8.20
2018,07,02,05,51,8.30
2018,07,02,05,52,8.30
2018,07,02,05,53,8.40
2018,07,02,05,54,8.40
2018,07,02,05,55,8.50
2018,07,02,05,56,8.50
2018,07,02,05,57,8.60
2018,07,02,05,58,8.70
2018,07,02,05,59,8.70
2018,07,02,06,00,8.80
2018,07,02,06,01,8.80
2018,07,02,06,02,8.90
2018,07,02,06,03,8.90
2018,07,02,06,04,9.00
2018,07,02,06,05,9.10
2018,07,02,06,06,9.20
2018,07,02,06,07,9.20
2018,07,02,06,08,9.30
2018,07,02,06,09,9.30
2018,07,02,06,10,9.30
2018,07,02,06,11,9.30
2018,07,02,06,12,9.30
2018,07,02,06,13,9.30
2018,07,02,06,14,9.30
2018,07,02,06,15,9.30
2018,07,02,06,16,9.30
2018,07,02,06,17,9.30
2018,07,02,06,18,9.30
2018,07,02,06,19,9.30
2018,07,02,06,20,9.30
2018,07,02,06,21,9.30
2018,07,02,06,22,9.30
2018,07,02,06,23,9.40
2018,07,02,06,24,9.40
2018,07,02,06,25,9.40
2018,07,02,06,26,9.50
2018,07,02,06,27,9.60
2018,07,02,06,28,9.60
2018,07,02,06,29,9.70
2018,07,02,06,30,9.70
2018,07,02,06,31,9.80
2018,07,02,06,32,9.80
2018,07,02,06,33,9.90
2018,07,02,06,34,9.90
2018,07,02,06,35,10.00
2018,07,02,06,36,10.10
2018,07,02,06,37,10.10
2018,07,02,06,38,10.20
2018,07,02,06,39,10.30
2018,07,02,06,40,10.30
2018,07,02,06,41,10.40
2018,07,02,06,42,10.50
2018,07,02,06,43,10.50
2018,07,02,06,44,10.60
2018,07,02,06,45,10.70
2018,07,02,06,46,10.70
2018,07,02,06,47,10.80
2018,07,02,06,48,10.80
2018,07,02,06,49,10.90
2018,07,02,06,50,10.90
2018,07,02,06,51,11.00
2018,07,02,06,52,11.10
2018,07,02,06,53,11.10
2018,07,02,06,54,11.20
2018,07,02,06,55,11.20
2018,07,02,06,56,11.30
2018,07,02,06,57,11.40
2018,07,02,06,58,11.40
2018,07,02,06,59,11.50
2018,07,02,07,00,11.60
2018,07,02,07,01,11.70
2018,07,02,07,02,11.70
2018,07,02,07,03,11.80
2018,07,02,07,04,11.80
2018,07,02,07,05,11.90
2018,07,02,07,06,11.90
2018,07,02,07,07,12.00
2018,07,02,07,08,12.10
2018,07,02,07,09,12.10
2018,07,02,07,10,12.20
2018,07,02,07,11,12.30
2018,07,02,07,12,12.30
2018,07,02,07,13,12.40
2018,07,02,07,14,12.40
2018,07,02,07,15,12.50
2018,07,02,07,16,12.50
2018,07,02,07,17,12.60
2018,07,02,07,18,12.60
2018,07,02,07,19,12.70
2018,07,02,07,20,12.70
2018,07,02,07,21,12.80
2018,07,02,07,22,12.80
2018,07,02,07,23,12.80
2018,07,02,07,24,12.90
2018,07,02,07,25,12.90
2018,07,02,07,26,13.00
2018,07,02,07,27,13.00
2018,07,02,07,28,13.10
2018,07,02,07,29,13.10
2018,07,02,07,30,13.20
2018,07,02,07,31,13.20
2018,07,02,07,32,13.30
2018,07,02,07,33,13.30
2018,07,02,07,34,13.40
2018,07,02,07,35,13.40
2018,07,02,07,36,13.50
2018,07,02,07,37,13.50
2018,07,02,07,38,13.60
2018,07,02,07,39,13.60
2018,07,02,07,40,13.60
2018,07,02,07,41,13.70
2018,07,02,07,42,13.70
2018,07,02,07,43,13.70
2018,07,02,07,44,13.70
2018,07,02,07,45,13.80
2018,07,02,07,46,13.80
2018,07,02,07,47,13.80
2018,07,02,07,48,13.80
2018,07,02,07,49,13.80
2018,07,02,07,50,13.80
2018,07,02,07,51,13.90
2018,07,02,07,52,13.90
2018,07,02,07,53,13.90
2018,07,02,07,54,14.00
2018,07,02,07,55,14.00
2018,07,02,07,56,14.10
2018,07,02,07,57,14.10
2018,07,02,07,58,14.20
2018,07,02,07,59,14.20
2018,07,02,08,00,14.20
2018,07,02,08,01,14.20
2018,07,02,08,02,14.30
2018,07,02,08,03,14.30
2018,07,02,08,04,14.40
2018,07,02,08,05,14.40
2018,07,02,08,06,14.40
2018,07,02,08,07,14.50
2018,07,02,08,08,14.60
2018,07,02,08,09,14.60
2018,07,02,08,10,14.60
2018,07,02,08,11,14.70
2018,07,02,08,12,14.70
2018,07,02,08,13,14.70
2018,07,02,08,14,14.80
2018,07,02,08,15,14.80
2018,07,02,08,16,14.80
2018,07,02,08,17,14.80
2018,07,02,08,18,14.80
2018,07,02,08,19,14.80
2018,07,02,08,20,14.80
2018,07,02,08,21,14.80
2018,07,02,08,22,14.80
2018,07,02,08,23,14.80
2018,07,02,08,24,14.90
2018,07,02,08,25,14.90
2018,07,02,08,26,14.90
2018,07,02,08,27,14.90
2018,07,02,08,28,14.90
2018,07,02,08,29,14.90
2018,07,02,08,30,14.90
2018,07,02,08,31,15.00
2018,07,02,08,32,15.00
2018,07,02,08,33,15.10
2018,07,02,08,34,15.10
2018,07,02,08,35,15.10
2018,07,02,08,36,15.10
2018,07,02,08,37,15.10
2018,07,02,08,38,15.10
2018,07,02,08,39,15.10
2018,07,02,08,40,15.10
2018,07,02,08,41,15.20
2018,07,02,08,42,15.20
2018,07,02,08,43,15.20
2018,07,02,08,44,15.30
2018,07,02,08,45,15.30
2018,07,02,08,46,15.30
2018,07,02,08,47,15.40
2018,07,02,08,48,15.40
2018,07,02,08,49,15.40
2018,07,02,08,50,15.40
2018,07,02,08,51,15.40
2018,07,02,08,52,15.50
2018,07,02,08,53,15.50
2018,07,02,08,54,15.60
2018,07,02,08,55,15.60
2018,07,02,08,56,15.60
2018,07,02,08,57,15.50
2018,07,02,08,58,15.50
2018,07,02,08,59,15.50
2018,07,02,09,00,15.50
2018,07,02,09,01,15.50
2018,07,02,09,02,15.50
2018,07,02,09,03,15.50
2018,07,02,09,04,15.60
2018,07,02,09,05,15.60
2018,07,02,09,06,15.60
2018,07,02,09,07,15.60
2018,07,02,09,08,15.70
2018,07,02,09,09,15.70
2018,07,02,09,10,15.70
2018,07,02,09,11,15.70
2018,07,02,09,12,15.80
2018,07,02,09,13,15.80
2018,07,02,09,14,15.70
2018,07,02,09,15,15.80
2018,07,02,09,16,15.80
2018,07,02,09,17,15.80
2018,07,02,09,18,15.80
2018,07,02,09,19,15.90
2018,07,02,09,20,15.90
2018,07,02,09,21,15.90
2018,07,02,09,22,16.00
2018,07,02,09,23,16.00
2018,07,02,09,24,16.00
2018,07,02,09,25,16.00
2018,07,02,09,26,16.10
2018,07,02,09,27,16.10
2018,07,02,09,28,16.20
2018,07,02,09,29,16.20
2018,07,02,09,30,16.20
2018,07,02,09,31,16.20
2018,07,02,09,32,16.20
2018,07,02,09,33,16.30
2018,07,02,09,34,16.30
2018,07,02,09,35,16.30
2018,07,02,09,36,16.30
2018,07,02,09,37,16.30
2018,07,02,09,38,16.30
2018,07,02,09,39,16.30
2018,07,02,09,40,16.30
2018,07,02,09,41,16.30
2018,07,02,09,42,16.30
2018,07,02,09,43,16.30
2018,07,02,09,44,16.40
2018,07,02,09,45,16.40
2018,07,02,09,46,16.40
2018,07,02,09,47,16.30
2018,07,02,09,48,16.30
2018,07,02,09,49,16.30
2018,07,02,09,50,16.40
2018,07,02,09,51,16.40
2018,07,02,09,52,16.40
2018,07,02,09,53,16.40
2018,07,02,09,54,16.40
2018,07,02,09,55,16.40
2018,07,02,09,56,16.40
2018,07,02,09,57,16.40
2018,07,02,09,58,16.50
2018,07,02,09,59,16.50
2018,07,02,10,00,16.50
2018,07,02,10,01,16.60
2018,07,02,10,02,16.60
2018,07,02,10,03,16.60
2018,07,02,10,04,16.60
2018,07,02,10,05,16.60
2018,07,02,10,06,16.70
2018,07,02,10,07,16.70
2018,07,02,10,08,16.70
2018,07,02,10,09,16.70
2018,07,02,10,10,16.70
2018,07,02,10,11,16.70
2018,07,02,10,12,16.70
2018,07,02,10,13,16.70
2018,07,02,10,14,16.70
2018,07,02,10,15,16.70
2018,07,02,10,16,16.70
2018,07,02,10,17,16.70
2018,07,02,10,18,16.70
2018,07,02,10,19,16.70
2018,07,02,10,20,16.70
2018,07,02,10,21,16.70
2018,07,02,10,22,16.70
2018,07,02,10,23,16.70
2018,07,02,10,24,16.70
2018,07,02,10,25,16.80
2018,07,02,10,26,16.80
2018,07,02,10,27,16.90
2018,07,02,10,28,16.90
2018,07,02,10,29,16.90
2018,07,02,10,30,16.90
2018,07,02,10,31,16.90
2018,07,02,10,32,16.90
2018,07,02,10,33,16.80
2018,07,02,10,34,16.90
2018,07,02,10,35,16.80
2018,07,02,10,36,16.80
2018,07,02,10,37,16.80
2018,07,02,10,38,16.90
2018,07,02,10,39,16.90
2018,07,02,10,40,16.90
2018,07,02,10,41,17.00
2018,07,02,10,42,17.00
2018,07,02,10,43,17.10
2018,07,02,10,44,17.20
2018,07,02,10,45,17.20
2018,07,02,10,46,17.20
2018,07,02,10,47,17.20
2018,07,02,10,48,17.10
2018,07,02,10,49,17.10
2018,07,02,10,50,17.20
2018,07,02,10,51,17.20
2018,07,02,10,52,17.20
2018,07,02,10,53,17.20
2018,07,02,10,54,17.20
2018,07,02,10,55,17.20
2018,07,02,10,56,17.30
2018,07,02,10,57,17.40
2018,07,02,10,58,17.40
2018,07,02,10,59,17.50
2018,07,02,11,00,17.50
2018,07,02,11,01,17.50
2018,07,02,11,02,17.50
2018,07,02,11,03,17.60
2018,07,02,11,04,17.60
2018,07,02,11,05,17.60
2018,07,02,11,06,17.70
2018,07,02,11,07,17.70
2018,07,02,11,08,17.60
2018,07,02,11,09,17.60
2018,07,02,11,10,17.60
2018,07,02,11,11,17.60
2018,07,02,11,12,17.60
2018,07,02,11,13,17.60
2018,07,02,11,14,17.70
2018,07,02,11,15,17.70
2018,07,02,11,16,17.70
2018,07,02,11,17,17.70
2018,07,02,11,18,17.70
2018,07,02,11,19,17.70
2018,07,02,11,20,17.70
2018,07,02,11,21,17.70
2018,07,02,11,22,17.80
2018,07,02,11,23,17.90
2018,07,02,11,24,18.00
2018,07,02,11,25,18.00
2018,07,02,11,26,18.10
2018,07,02,11,27,18.00
2018,07,02,11,28,17.90
2018,07,02,11,29,17.90
2018,07,02,11,30,17.90
2018,07,02,11,31,17.90
2018,07,02,11,32,17.90
2018,07,02,11,33,18.00
2018,07,02,11,34,18.10
2018,07,02,11,35,18.20
2018,07,02,11,36,18.20
2018,07,02,11,37,18.20
2018,07,02,11,38,18.20
2018,07,02,11,39,18.30
2018,07,02,11,40,18.30
2018,07,02,11,41,18.30
2018,07,02,11,42,18.30
2018,07,02,11,43,18.30
2018,07,02,11,44,18.40
2018,07,02,11,45,18.50
2018,07,02,11,46,18.60
2018,07,02,11,47,18.50
2018,07,02,11,48,18.40
2018,07,02,11,49,18.40
2018,07,02,11,50,18.40
2018,07,02,11,51,18.40
2018,07,02,11,52,18.40
2018,07,02,11,53,18.40
2018,07,02,11,54,18.40
2018,07,02,11,55,18.30
2018,07,02,11,56,18.30
2018,07,02,11,57,18.30
2018,07,02,11,58,18.30
2018,07,02,11,59,18.30
2018,07,02,12,00,18.30
2018,07,02,12,01,18.30
2018,07,02,12,02,18.40
2018,07,02,12,03,18.40
2018,07,02,12,04,18.40
2018,07,02,12,05,18.40
2018,07,02,12,06,18.40
2018,07,02,12,07,18.40
2018,07,02,12,08,18.40
2018,07,02,12,09,18.30
2018,07,02,12,10,18.30
2018,07,02,12,11,18.30
2018,07,02,12,12,18.30
2018,07,02,12,13,18.20
2018,07,02,12,14,18.10
2018,07,02,12,15,18.10
2018,07,02,12,16,18.10
2018,07,02,12,17,18.00
2018,07,02,12,18,18.00
2018,07,02,12,19,18.00
2018,07,02,12,20,18.10
2018,07,02,12,21,18.10
2018,07,02,12,22,18.20
2018,07,02,12,23,18.20
2018,07,02,12,24,18.20
2018,07,02,12,25,18.20
2018,07,02,12,26,18.20
2018,07,02,12,27,18.10
2018,07,02,12,28,18.10
2018,07,02,12,29,18.10
2018,07,02,12,30,18.10
2018,07,02,12,31,18.10
2018,07,02,12,32,18.20
2018,07,02,12,33,18.20
2018,07,02,12,34,18.20
2018,07,02,12,35,18.10
2018,07,02,12,36,18.10
2018,07,02,12,37,18.10
2018,07,02,12,38,18.10
2018,07,02,12,39,18.10
2018,07,02,12,40,18.10
2018,07,02,12,41,18.20
2018,07,02,12,42,18.20
2018,07,02,12,43,18.20
2018,07,02,12,44,18.20
2018,07,02,12,45,18.20
2018,07,02,12,46,18.10
2018,07,02,12,47,18.10
2018,07,02,12,48,18.10
2018,07,02,12,49,18.10
2018,07,02,12,50,18.20
2018,07,02,12,51,18.20
2018,07,02,12,52,18.20
2018,07,02,12,53,18.20
2018,07,02,12,54,18.30
2018,07,02,12,55,18.30
2018,07,02,12,56,18.30
2018,07,02,12,57,18.30
2018,07,02,12,58,18.20
2018,07,02,12,59,18.20
2018,07,02,13,00,18.20
2018,07,02,13,01,18.10
2018,07,02,13,02,18.20
2018,07,02,13,03,18.20
2018,07,02,13,04,18.20
2018,07,02,13,05,18.20
2018,07,02,13,06,18.10
2018,07,02,13,07,18.20
2018,07,02,13,08,18.20
2018,07,02,13,09,18.10
2018,07,02,13,10,18.10
2018,07,02,13,11,18.10
2018,07,02,13,12,18.10
2018,07,02,13,13,18.10
2018,07,02,13,14,18.20
2018,07,02,13,15,18.20
2018,07,02,13,16,18.30
2018,07,02,13,17,18.40
2018,07,02,13,18,18.50
2018,07,02,13,19,18.60
2018,07,02,13,20,18.70
2018,07,02,13,21,18.70
2018,07,02,13,22,18.60
2018,07,02,13,23,18.50
2018,07,02,13,24,18.50
2018,07,02,13,25,18.40
2018,07,02,13,26,18.40
2018,07,02,13,27,18.40
2018,07,02,13,28,18.50
2018,07,02,13,29,18.50
2018,07,02,13,30,18.60
2018,07,02,13,31,18.60
2018,07,02,13,32,18.60
2018,07,02,13,33,18.60
2018,07,02,13,34,18.60
2018,07,02,13,35,18.50
2018,07,02,13,36,18.50
2018,07,02,13,37,18.50
2018,07,02,13,38,18.50
2018,07,02,13,39,18.50
2018,07,02,13,40,18.50
2018,07,02,13,41,18.60
2018,07,02,13,42,18.60
2018,07,02,13,43,18.60
2018,07,02,13,44,18.70
2018,07,02,13,45,18.70
2018,07,02,13,46,18.60
2018,07,02,13,47,18.60
2018,07,02,13,48,18.60
2018,07,02,13,49,18.60
2018,07,02,13,50,18.70
2018,07,02,13,51,18.80
2018,07,02,13,52,18.80
2018,07,02,13,53,18.90
2018,07,02,13,54,18.90
2018,07,02,13,55,18.90
2018,07,02,13,56,18.90
2018,07,02,13,57,18.90
2018,07,02,13,58,18.90
2018,07,02,13,59,18.90
2018,07,02,14,00,18.90
2018,07,02,14,01,18.90
2018,07,02,14,02,18.90
2018,07,02,14,03,18.90
2018,07,02,14,04,18.90
2018,07,02,14,05,18.90
2018,07,02,14,06,19.00
2018,07,02,14,07,19.00
2018,07,02,14,08,19.00
2018,07,02,14,09,19.10
2018,07,02,14,10,19.10
2018,07,02,14,11,19.10
2018,07,02,14,12,19.10
2018,07,02,14,13,19.10
2018,07,02,14,14,19.10
2018,07,02,14,15,19.20
2018,07,02,14,16,19.20
2018,07,02,14,17,19.20
2018,07,02,14,18,19.20
2018,07,02,14,19,19.30
2018,07,02,14,20,19.30
2018,07,02,14,21,19.30
2018,07,02,14,22,19.30
2018,07,02,14,23,19.20
2018,07,02,14,24,19.20
2018,07,02,14,25,19.20
2018,07,02,14,26,19.20
2018,07,02,14,27,19.20
2018,07,02,14,28,19.20
2018,07,02,14,29,19.30
2018,07,02,14,30,19.30
2018,07,02,14,31,19.30
2018,07,02,14,32,19.40
2018,07,02,14,33,19.40
2018,07,02,14,34,19.50
2018,07,02,14,35,19.60
2018,07,02,14,36,19.60
2018,07,02,14,37,19.70
2018,07,02,14,38,19.70
2018,07,02,14,39,19.70
2018,07,02,14,40,19.70
2018,07,02,14,41,19.70
2018,07,02,14,42,19.70
2018,07,02,14,43,19.60
2018,07,02,14,44,19.60
2018,07,02,14,45,19.60
2018,07,02,14,46,19.60
2018,07,02,14,47,19.60
2018,07,02,14,48,19.60
2018,07,02,14,49,19.60
2018,07,02,14,50,19.60
2018,07,02,14,51,19.70
2018,07,02,14,52,19.60
2018,07,02,14,53,19.60
2018,07,02,14,54,19.60
2018,07,02,14,55,19.60
2018,07,02,14,56,19.60
2018,07,02,14,57,19.60
2018,07,02,14,58,19.60
2018,07,02,14,59,19.60
2018,07,02,15,00,19.70
2018,07,02,15,01,19.70
2018,07,02,15,02,19.70
2018,07,02,15,03,19.70
2018,07,02,15,04,19.70
2018,07,02,15,05,19.70
2018,07,02,15,06,19.70
2018,07,02,15,07,19.70
2018,07,02,15,08,19.70
2018,07,02,15,09,19.70
2018,07,02,15,10,19.80
2018,07,02,15,11,19.80
2018,07,02,15,12,19.80
2018,07,02,15,13,19.80
2018,07,02,15,14,19.80
2018,07,02,15,15,19.80
2018,07,02,15,16,19.90
2018,07,02,15,17,19.90
2018,07,02,15,18,19.90
2018,07,02,15,19,19.90
2018,07,02,15,20,19.90
2018,07,02,15,21,19.90
2018,07,02,15,22,19.90
2018,07,02,15,23,19.90
2018,07,02,15,24,19.90
2018,07,02,15,25,20.00
2018,07,02,15,26,20.00
2018,07,02,15,27,20.00
2018,07,02,15,28,19.90
2018,07,02,15,29,19.90
2018,07,02,15,30,19.90
2018,07,02,15,31,19.90
2018,07,02,15,32,19.80
2018,07,02,15,33,19.80
2018,07,02,15,34,19.80
2018,07,02,15,35,19.80
2018,07,02,15,36,19.80
2018,07,02,15,37,19.80
2018,07,02,15,38,19.80
2018,07,02,15,39,19.80
2018,07,02,15,40,19.80
2018,07,02,15,41,19.80
2018,07,02,15,42,19.80
2018,07,02,15,43,19.90
2018,07,02,15,44,19.90
2018,07,02,15,45,20.00
2018,07,02,15,46,20.10
2018,07,02,15,47,20.20
2018,07,02,15,48,20.20
2018,07,02,15,49,20.10
2018,07,02,15,50,20.10
2018,07,02,15,51,20.00
2018,07,02,15,52,19.90
2018,07,02,15,53,19.90
2018,07,02,15,54,20.00
2018,07,02,15,55,20.00
2018,07,02,15,56,20.00
2018,07,02,15,57,20.10
2018,07,02,15,58,20.10
2018,07,02,15,59,20.10
2018,07,02,16,00,20.10
2018,07,02,16,01,20.20
2018,07,02,16,02,20.20
2018,07,02,16,03,20.20
2018,07,02,16,04,20.10
2018,07,02,16,05,20.10
2018,07,02,16,06,20.10
2018,07,02,16,07,20.00
2018,07,02,16,08,20.00
2018,07,02,16,09,20.00
2018,07,02,16,10,19.90
2018,07,02,16,11,20.00
2018,07,02,16,12,20.00
2018,07,02,16,13,20.10
2018,07,02,16,14,20.10
2018,07,02,16,15,20.20
2018,07,02,16,16,20.20
2018,07,02,16,17,20.30
2018,07,02,16,18,20.20
2018,07,02,16,19,20.20
2018,07,02,16,20,20.10
2018,07,02,16,21,20.10
2018,07,02,16,22,20.10
2018,07,02,16,23,20.20
2018,07,02,16,24,20.20
2018,07,02,16,25,20.10
2018,07,02,16,26,20.10
2018,07,02,16,27,20.10
2018,07,02,16,28,20.10
2018,07,02,16,29,20.10
2018,07,02,16,30,20.20
2018,07,02,16,31,20.20
2018,07,02,16,32,20.10
2018,07,02,16,33,20.10
2018,07,02,16,34,20.10
2018,07,02,16,35,20.00
2018,07,02,16,36,20.00
2018,07,02,16,37,19.90
2018,07,02,16,38,19.80
2018,07,02,16,39,19.80
2018,07,02,16,40,19.80
2018,07,02,16,41,19.80
2018,07,02,16,42,19.80
2018,07,02,16,43,19.80
2018,07,02,16,44,19.80
2018,07,02,16,45,19.80
2018,07,02,16,46,19.80
2018,07,02,16,47,19.80
2018,07,02,16,48,19.70
2018,07,02,16,49,19.70
2018,07,02,16,50,19.70
2018,07,02,16,51,19.70
2018,07,02,16,52,19.60
2018,07,02,16,53,19.60
2018,07,02,16,54,19.60
2018,07,02,16,55,19.70
2018,07,02,16,56,19.70
2018,07,02,16,57,19.70
2018,07,02,16,58,19.70
2018,07,02,16,59,19.70
2018,07,02,17,00,19.80
2018,07,02,17,01,19.80
2018,07,02,17,02,19.90
2018,07,02,17,03,19.90
2018,07,02,17,04,19.90
2018,07,02,17,05,19.90
2018,07,02,17,06,19.90
2018,07,02,17,07,19.90
2018,07,02,17,08,19.80
2018,07,02,17,09,19.80
2018,07,02,17,10,19.90
2018,07,02,17,11,19.90
2018,07,02,17,12,19.90
2018,07,02,17,13,19.90
2018,07,02,17,14,19.90
2018,07,02,17,15,19.90
2018,07,02,17,16,19.90
2018,07,02,17,17,19.90
2018,07,02,17,18,19.90
2018,07,02,17,19,19.90
2018,07,02,17,20,19.80
2018,07,02,17,21,19.80
2018,07,02,17,22,19.80
2018,07,02,17,23,19.80
2018,07,02,17,24,19.80
2018,07,02,17,25,19.80
2018,07,02,17,26,19.80
2018,07,02,17,27,19.70
2018,07,02,17,28,19.70
2018,07,02,17,29,19.70